Wetbulb
44.01 43.89 43.89 43.92 43.78 43.37 43.00 43.01 43.68 43.73 43.33 42.71 42.40 42.24 42.09 41.82 41.58 41.42 41.31 41.00 40.65 40.22 39.63 38.97 38.39 37.42 36.42 35.58 35.57 35.50 35.54 35.66 35.81 36.53 37.11 36.92 36.18 35.71 35.39 35.19 34.96 34.67 34.40 34.29 33.90 33.48 33.09 32.73 32.59 32.43 32.22 32.16 31.72 31.40 31.35 31.48 31.03 30.76 30.67 30.42 30.11 29.57 29.02 28.68 28.82 29.21 29.46 29.34 29.47
43.76 43.91 44.42 45.22 45.25 44.32 43.29 43.12 43.40 43.61 43.43 42.87 42.68 42.45 42.25 42.09 41.78 41.62 41.35 41.12 40.92 40.45 39.75 39.20 38.35 37.29 36.37 35.91 35.88 35.62 35.29 35.21 35.36 35.85 36.41 36.36 35.78 35.40 35.17 35.08 34.84 34.60 34.29 33.96 33.66 33.52 33.26 32.65 32.34 32.14 31.94 31.71 31.33 30.99 30.93 31.22 30.80 30.48 30.10 29.77 29.91 29.61 29.20 28.86 28.91 29.29 29.64 29.49 29.30
43.82 44.00 44.22 44.24 43.98 43.51 43.03 42.72 42.62 42.64 42.61 42.70 42.56 42.53 42.37 42.17 42.01 41.89 41.69 41.38 40.84 40.30 39.71 39.17 38.31 37.50 36.67 35.94 35.80 35.54 35.25 34.98 34.91 35.08 35.38 35.64 35.36 35.21 35.01 35.03 34.55 34.52 34.60 34.23 33.65 33.45 33.28 32.64 32.55 32.49 32.21 31.52 30.98 30.63 30.53 30.39 30.65 30.41 29.95 29.57 29.87 29.76 29.46 29.13 29.00 29.27 29.57 29.42 28.78
43.54 43.62 43.71 43.65 43.42 43.23 43.18 43.10 42.65 42.30 42.37 42.56 42.32 42.28 42.35 42.35 42.22 42.06 41.76 41.23 40.49 40.21 39.98 39.43 38.82 38.25 37.47 36.57 35.70 35.29 35.26 35.61 35.07 34.73 34.70 34.96 34.99 34.87 34.74 34.67 34.36 34.16 34.02 33.80 33.32 33.01 32.77 32.41 32.57 32.53 32.11 31.02 30.30 30.07 30.24 30.34 30.34 30.31 30.27 30.06 30.02 29.75 29.42 29.19 29.06 29.20 29.23 28.99 28.52
43.07 43.44 43.73 43.83 43.47 43.50 43.60 43.40 42.83 42.55 42.37 42.23 42.02 41.95 42.06 42.24 42.19 41.89 41.55 41.20 41.03 40.73 40.24 39.40 39.22 38.84 38.13 36.90 35.78 35.12 34.91 35.29 36.17 35.61 34.68 34.47 34.46 34.52 34.54 34.38 34.25 34.08 33.86 33.43 32.99 32.63 32.38 31.98 32.34 32.20 31.69 30.95 30.45 30.23 30.03 29.70 29.63 29.72 29.87 30.19 30.10 29.74 29.33 29.01 28.99 29.03 29.01 28.90 28.60
42.55 42.89 43.36 43.57 43.22 43.35 43.70 43.71 43.03 42.78 42.56 42.27 41.80 41.65 41.65 41.76 41.55 41.25 40.98 40.89 40.81 40.36 39.94 39.86 39.99 39.71 38.70 36.77 35.90 35.32 34.83 34.56 35.48 35.29 34.58 33.97 34.06 34.05 33.99 33.93 33.89 33.92 33.71 33.30 32.73 32.20 31.92 31.74 32.12 31.91 31.42 30.89 30.26 29.92 29.65 29.13 29.26 29.13 29.15 29.39 29.45 29.26 28.94 28.41 28.67 28.76 28.71 28.50 28.12
42.14 42.30 42.55 42.71 42.62 42.90 43.05 42.90 43.06 42.84 42.47 42.21 41.59 41.34 41.30 41.30 40.97 40.59 40.44 40.55 40.25 39.90 40.02 40.81 40.38 39.73 38.70 36.93 36.14 35.50 34.99 34.62 34.58 34.38 34.08 33.83 33.66 33.57 33.57 33.62 33.50 33.44 33.33 33.04 32.44 32.14 31.87 31.65 31.85 31.80 31.78 31.74 30.59 29.52 28.84 28.89 28.87 28.69 28.50 28.39 28.72 28.65 28.31 27.66 28.17 28.33 28.21 27.60 27.25
41.81 41.82 41.92 41.98 42.03 41.94 41.70 41.57 42.05 42.30 42.37 42.39 41.90 41.47 40.99 40.81 40.35 40.13 39.98 39.86 39.59 39.51 39.74 40.26 39.28 38.55 37.78 37.05 36.31 35.68 35.06 34.45 34.25 33.99 33.75 33.61 33.10 32.98 32.93 32.97 32.99 32.91 32.79 32.67 32.33 31.97 31.72 31.69 31.72 31.42 31.15 30.95 30.36 29.45 28.67 28.02 27.96 27.86 27.82 27.67 28.00 27.94 27.63 27.22 27.31 27.65 27.67 27.07 26.59
41.59 41.59 41.49 41.35 41.27 41.17 41.08 40.83 41.03 41.52 42.02 42.07 41.90 41.50 41.10 40.81 40.27 39.93 39.78 39.62 39.78 39.66 39.47 39.53 38.78 38.02 37.36 36.81 36.28 35.79 35.34 34.85 34.18 33.76 33.49 33.28 32.77 32.54 32.45 32.45 32.41 32.46 32.46 32.49 32.07 31.61 31.29 31.57 31.55 31.24 30.85 30.53 30.08 29.31 28.44 27.56 27.12 27.04 27.13 27.34 27.33 27.12 27.02 27.03 26.92 26.99 27.06 26.76 26.28
41.19 41.19 41.08 41.03 41.11 41.27 41.31 40.93 41.01 41.16 41.42 41.63 41.54 41.42 41.50 42.27 41.50 40.73 40.23 40.33 40.26 39.77 39.31 39.08 38.40 37.71 37.05 36.62 36.44 36.03 35.58 35.09 34.36 33.65 33.19 33.09 32.85 32.29 31.91 32.01 31.84 31.90 32.11 32.23 31.96 31.47 31.04 31.17 31.05 30.79 30.43 30.08 29.27 28.44 27.74 27.26 26.84 26.56 26.70 27.52 27.02 26.37 26.01 26.36 26.43 26.51 26.68 26.70 26.12
40.84 40.91 41.13 41.25 41.11 41.27 41.44 41.02 41.29 41.44 41.51 41.46 41.33 41.21 41.36 42.13 41.70 41.34 40.98 40.63 40.06 39.53 39.04 38.85 38.13 37.52 36.98 36.67 36.57 36.27 35.85 35.39 34.57 33.67 32.91 32.59 32.71 32.23 31.60 31.45 31.26 31.22 31.35 31.65 31.69 31.44 31.15 30.91 30.52 30.02 29.54 29.51 28.64 27.78 27.14 26.82 26.56 26.30 26.28 26.91 26.55 25.83 25.35 25.61 26.03 26.32 26.42 26.45 26.02
41.08 41.04 41.04 41.03 40.86 40.77 40.74 40.78 41.16 41.27 41.20 41.16 41.10 41.05 40.97 41.08 41.04 41.19 41.13 40.49 39.88 39.50 39.16 38.63 37.98 37.40 37.02 36.86 36.45 36.41 36.18 35.26 34.36 33.52 32.79 32.15 31.94 31.70 31.37 31.10 30.90 30.74 30.70 30.91 31.21 31.27 31.06 30.49 30.02 29.40 28.94 28.65 28.55 27.97 27.20 26.41 26.28 26.05 25.84 25.97 25.84 25.40 25.04 25.01 25.48 26.02 26.31 26.23 25.83
41.56 41.29 41.09 40.94 40.48 40.14 40.14 40.46 40.70 40.81 40.72 40.76 40.90 41.08 41.10 41.07 41.04 41.00 40.81 40.12 39.96 39.87 39.57 38.82 38.05 37.48 37.02 36.75 36.29 35.95 35.68 35.17 34.31 33.70 33.12 32.22 31.73 31.32 31.02 30.82 30.61 30.42 30.43 30.55 30.79 30.88 30.75 30.07 29.46 28.82 28.46 28.25 28.34 27.99 27.23 26.31 26.14 25.89 25.72 25.48 25.36 25.16 24.91 24.71 25.09 25.61 25.97 25.89 25.70
41.70 41.46 41.23 40.84 40.34 40.10 40.07 40.02 40.46 40.61 40.57 40.41 40.68 40.86 40.93 40.73 40.89 40.89 40.70 40.04 39.89 39.69 39.35 38.70 38.44 38.21 37.71 36.82 36.20 35.58 35.11 34.81 34.21 33.57 32.98 32.48 31.84 31.26 30.87 30.67 30.39 30.32 30.28 30.44 30.51 30.31 30.10 29.81 29.20 28.70 28.30 28.04 28.00 27.70 27.16 26.42 26.17 25.94 25.69 25.44 25.20 24.99 24.87 24.72 24.94 25.20 25.44 25.27 25.43
41.60 41.48 41.12 40.61 40.07 40.18 40.22 39.71 40.42 40.61 40.46 40.30 40.57 40.72 40.75 40.67 40.82 40.86 40.55 39.82 39.51 39.24 38.93 38.40 38.44 38.36 37.85 36.80 35.99 35.33 34.89 34.54 33.99 33.46 32.90 32.34 31.69 31.20 30.79 30.55 30.32 30.16 30.17 30.20 30.09 29.94 29.69 29.43 28.97 28.64 28.36 28.06 27.84 27.45 27.04 26.45 26.24 26.08 25.94 25.69 25.44 25.24 25.05 24.90 24.92 25.10 25.22 25.15 25.18
41.52 41.25 40.93 40.58 40.10 40.07 40.14 39.95 40.65 40.69 40.41 40.42 40.53 40.49 40.49 40.56 40.44 40.25 39.98 39.24 39.13 38.93 38.59 38.01 37.82 37.54 37.26 36.98 36.24 35.47 34.89 34.45 33.94 33.31 32.70 32.08 31.55 31.10 30.70 30.39 30.20 30.09 29.96 29.79 29.75 29.69 29.57 29.45 29.16 28.70 28.38 28.05 27.86 27.52 27.08 26.49 26.18 25.97 25.90 25.83 25.73 25.53 25.35 25.29 25.14 25.25 25.42 25.59 25.78
41.20 41.09 40.82 40.54 40.30 40.18 40.14 40.22 40.65 40.64 40.49 40.26 40.10 40.02 40.14 40.10 39.94 39.79 39.67 39.36 38.86 38.39 37.93 37.38 37.34 36.98 36.73 36.87 36.60 35.99 35.14 34.48 33.95 33.36 32.73 32.11 31.46 31.04 30.63 30.31 30.25 30.11 29.83 29.65 29.50 29.33 29.22 29.24 29.21 28.88 28.50 28.08 27.96 27.71 27.31 26.62 26.22 26.00 25.89 25.84 25.82 25.65 25.72 26.23 25.98 25.87 25.93 26.24 26.55
41.16 41.05 40.90 40.70 40.62 40.46 40.30 40.10 40.34 40.34 40.18 39.95 39.83 39.71 39.59 39.55 39.32 39.24 39.20 39.08 38.34 37.55 36.97 36.61 36.56 36.39 36.02 35.64 35.92 35.98 35.55 34.49 33.80 33.23 32.78 32.18 31.54 31.03 30.71 30.42 30.38 30.15 29.88 29.61 29.41 29.25 29.04 28.87 28.82 28.77 28.61 28.21 28.13 27.93 27.58 26.89 26.37 26.05 25.85 25.86 25.89 25.80 25.92 26.64 26.67 26.65 26.60 26.62 27.16
41.16 41.16 41.09 40.98 40.90 40.86 40.78 40.86 40.78 40.62 40.42 40.30 40.06 39.71 39.31 39.00 38.84 38.69 38.46 38.14 37.97 37.22 36.46 35.98 35.90 35.72 35.50 35.10 35.12 35.69 35.86 34.75 33.65 33.00 32.57 32.08 31.51 31.07 30.71 30.42 30.34 30.06 29.82 29.60 29.42 29.26 29.07 28.87 28.74 28.61 28.51 28.25 28.17 28.04 27.68 27.07 26.53 26.22 26.06 25.99 26.08 26.11 26.24 26.67 26.99 27.15 27.18 27.12 27.48
41.05 41.09 41.13 41.13 41.06 41.02 41.14 41.30 41.30 41.22 41.02 40.94 40.34 39.83 39.31 38.83 38.55 38.20 37.85 37.50 37.46 36.93 36.16 35.64 35.48 35.22 34.96 34.79 34.57 34.91 35.19 35.14 33.81 32.87 32.28 31.85 31.35 30.92 30.63 30.36 30.17 29.89 29.67 29.50 29.38 29.21 29.12 28.99 28.70 28.58 28.45 28.27 28.08 27.80 27.55 27.07 26.67 26.39 26.26 26.49 26.59 26.65 26.79 26.99 27.28 27.36 27.41 27.39 27.53
40.86 40.89 41.01 41.09 41.02 41.14 41.34 41.54 41.54 41.38 41.14 40.82 40.30 39.82 39.42 38.98 38.46 37.94 37.58 37.35 36.99 36.51 35.90 35.46 35.13 34.88 34.62 34.39 34.12 33.97 34.12 34.90 33.77 32.81 32.09 31.67 31.31 31.01 30.69 30.56 30.10 29.95 29.76 29.59 29.34 29.16 28.95 28.87 28.68 28.52 28.44 28.42 28.23 27.82 27.48 27.17 26.80 26.46 26.37 26.60 26.87 27.04 27.13 27.20 27.32 27.39 27.45 27.44 27.54
40.62 40.66 40.78 40.78 40.82 40.98 41.26 41.42 41.46 41.38 41.14 40.86 40.37 39.85 39.36 38.88 38.48 38.08 37.55 37.05 36.61 36.14 35.74 35.46 35.13 34.76 34.43 34.20 33.88 33.56 33.59 34.19 33.43 32.75 32.21 31.71 31.47 31.27 31.09 30.83 30.23 29.86 29.64 29.49 29.28 29.06 28.90 28.84 28.69 28.52 28.35 28.22 28.22 28.09 27.89 27.63 27.11 26.72 26.42 26.46 26.70 26.93 27.09 27.14 27.22 27.29 27.41 27.49 27.61
40.42 40.38 40.38 40.34 40.22 40.54 40.82 40.86 40.74 40.73 40.73 40.69 40.32 39.83 39.30 38.78 38.38 37.92 37.30 36.62 36.60 36.29 35.88 35.58 35.33 34.87 34.37 34.07 33.80 33.44 33.15 33.15 32.85 32.51 32.12 31.63 31.23 31.04 30.92 30.75 30.25 29.85 29.56 29.59 29.29 28.95 28.72 28.70 28.71 28.61 28.44 28.19 28.13 28.10 28.02 27.83 27.54 27.11 26.63 26.34 26.37 26.53 26.75 26.89 27.04 27.16 27.33 27.53 27.69
39.92 39.81 39.90 40.06 39.42 39.26 39.31 39.39 39.42 39.61 39.76 40.00 39.95 39.74 39.33 38.72 38.19 37.52 36.89 36.30 36.18 35.94 35.72 35.85 35.51 34.91 34.32 33.90 33.64 33.29 32.92 32.56 32.28 31.88 31.62 31.28 31.05 30.70 30.46 30.36 30.14 29.99 29.83 29.95 30.19 30.15 29.80 29.32 28.91 28.81 28.84 28.68 28.38 28.12 27.95 27.73 27.62 27.21 26.78 26.28 26.05 26.11 26.29 26.48 26.69 26.91 27.11 27.30 27.60
39.27 39.07 38.92 38.78 38.35 38.20 38.20 38.16 38.24 38.46 38.77 39.20 39.38 39.28 39.03 38.53 37.91 37.16 36.52 35.96 35.63 35.39 35.19 35.00 34.72 34.48 34.18 33.89 33.54 33.15 32.73 32.33 31.93 31.55 31.21 30.90 30.79 30.54 30.36 30.25 30.23 30.22 30.41 30.95 33.20 34.16 34.04 32.88 31.15 29.87 29.22 28.98 28.67 28.37 27.99 27.78 27.58 27.32 26.88 26.45 26.11 25.85 25.82 25.90 26.23 26.50 26.83 27.06 27.41
38.73 38.22 37.90 37.57 37.39 37.28 37.21 37.29 37.49 37.72 38.03 38.37 38.54 38.59 38.51 38.29 37.80 36.95 36.10 35.55 35.30 34.99 34.70 34.51 34.38 34.79 34.90 34.17 33.53 33.04 32.74 32.53 32.04 31.56 31.16 30.89 30.44 30.23 30.16 30.27 30.40 30.37 30.91 32.64 34.88 36.11 36.51 36.28 35.02 32.89 30.69 28.85 28.59 28.24 27.93 27.68 27.60 27.38 27.00 26.62 26.33 25.94 25.66 25.49 25.69 26.09 26.48 26.97 27.37
38.19 37.64 37.29 37.08 36.82 36.75 36.81 37.02 37.18 37.29 37.40 37.59 37.68 37.88 38.00 37.82 37.61 36.84 35.93 35.31 34.82 34.22 33.86 34.00 33.93 35.06 35.67 34.46 33.32 32.61 32.36 32.44 32.03 31.60 31.12 30.77 30.33 30.08 29.91 30.23 30.48 30.58 31.41 33.86 35.72 36.77 37.25 37.45 37.19 35.83 33.34 29.67 28.63 28.06 27.80 27.48 27.27 27.06 26.80 26.48 26.25 26.00 25.71 25.47 25.58 25.95 26.39 26.74 27.20
37.54 37.15 36.82 36.61 36.51 36.62 36.81 37.06 37.06 37.14 37.19 37.27 37.25 37.34 37.20 36.93 36.48 36.11 35.69 35.13 34.33 33.65 33.32 33.48 33.70 34.36 34.75 34.20 33.29 32.53 32.05 31.98 31.91 31.58 31.19 30.79 30.54 30.20 30.08 30.36 30.45 31.22 32.78 35.18 36.38 37.11 37.55 37.88 38.00 37.49 35.95 32.58 29.46 28.17 27.72 27.44 27.19 26.88 26.56 26.28 26.16 26.03 25.85 25.77 25.94 26.15 26.29 26.52 26.92
36.66 36.47 36.27 36.15 36.32 36.57 36.95 37.13 37.21 37.34 37.42 37.34 37.17 36.86 36.44 35.97 35.67 35.53 35.28 34.75 33.84 33.68 33.71 33.62 33.95 33.85 33.57 33.40 33.08 32.63 32.04 31.62 31.65 31.50 31.22 30.72 30.49 30.42 30.45 30.55 30.56 31.78 33.73 36.18 36.84 37.28 37.67 37.93 38.14 38.26 37.68 36.15 31.55 28.95 27.74 27.43 27.16 26.80 26.50 26.22 26.12 26.01 25.95 25.95 26.15 26.23 26.33 26.44 26.73
36.00 36.03 35.97 36.05 36.35 36.71 37.10 37.35 37.59 37.68 37.76 37.76 37.13 36.61 36.07 35.67 35.24 35.11 34.91 34.56 34.02 34.03 34.03 33.55 33.54 33.20 32.84 32.67 32.49 32.24 31.97 31.77 31.56 31.34 30.98 30.57 30.46 30.49 30.70 31.24 30.87 31.82 33.75 36.39 37.03 37.41 37.71 37.97 38.14 38.34 38.40 38.19 34.35 30.68 28.03 27.23 26.96 26.72 26.52 26.20 26.12 26.02 25.94 26.00 26.06 26.20 26.28 26.53 26.67
35.82 35.93 36.03 36.20 36.57 36.97 37.32 37.69 37.85 37.77 37.80 37.68 36.95 36.47 36.07 35.74 35.28 34.90 34.62 34.43 34.29 34.61 34.65 33.58 32.99 32.58 32.51 32.46 32.19 31.83 31.61 31.45 31.23 30.99 30.69 30.36 31.08 31.13 31.00 30.99 30.66 31.68 33.64 36.30 37.04 37.51 37.80 38.05 38.18 38.30 38.49 38.80 36.46 32.62 29.00 27.22 26.81 26.60 26.42 26.30 26.17 26.04 26.04 26.04 26.07 26.14 26.28 26.45 26.57
35.84 35.96 36.13 36.38 36.70 37.11 37.50 37.83 37.99 37.86 37.64 37.16 36.68 36.38 36.09 35.77 35.29 34.90 34.61 34.54 34.40 34.12 33.77 33.26 32.86 32.54 32.38 32.19 31.94 31.64 31.38 31.17 30.95 30.80 30.66 30.47 30.53 30.40 30.43 30.60 30.42 31.49 33.49 36.12 36.92 37.51 37.80 38.10 38.21 38.29 38.45 38.69 37.56 34.31 30.47 27.72 26.89 26.51 26.35 26.23 26.17 26.17 26.17 26.26 26.25 26.30 26.40 26.55 26.68
35.69 35.88 36.05 36.34 36.84 37.29 37.68 37.93 37.97 37.79 37.53 37.22 36.83 36.61 36.26 35.91 35.51 35.08 34.80 34.71 34.37 33.76 33.19 32.92 32.70 32.53 32.37 32.12 31.84 31.54 31.27 31.13 31.04 31.30 31.64 31.39 30.56 30.06 29.76 30.13 30.03 31.67 34.00 36.11 36.86 37.38 37.76 38.06 38.22 38.33 38.40 38.56 37.53 35.20 32.09 28.99 27.56 26.73 26.26 26.13 26.22 26.23 26.29 26.35 26.40 26.50 26.62 26.85 27.05
35.23 35.58 36.04 36.53 37.21 37.62 37.97 38.14 38.05 37.92 37.66 37.48 37.21 36.90 36.31 35.47 35.23 35.09 35.01 35.07 34.80 34.31 33.76 33.14 32.96 32.88 32.68 32.44 32.07 31.75 31.69 32.24 31.60 31.05 30.66 30.58 30.19 29.84 29.66 29.59 29.55 31.86 34.67 36.21 36.81 37.29 37.64 37.93 38.13 38.25 38.36 38.35 37.04 35.47 33.38 30.54 28.53 27.28 26.46 26.09 26.22 26.40 26.53 26.56 26.64 26.84 27.02 27.24 27.47
35.08 35.67 36.37 37.17 37.71 38.06 38.19 38.19 38.10 38.01 37.83 37.57 37.42 37.10 36.53 35.57 35.38 35.40 35.64 36.07 35.91 35.14 34.25 33.77 33.46 33.15 32.99 32.67 32.20 31.90 31.80 31.88 31.30 30.74 30.31 30.02 29.73 29.59 29.54 29.34 29.34 31.81 34.74 36.19 36.70 37.13 37.47 37.76 37.96 38.13 38.06 37.71 36.25 35.16 34.01 32.02 29.71 27.98 26.87 26.20 26.18 26.32 26.49 26.61 26.84 27.18 27.36 27.62 27.66
35.68 36.40 37.12 37.76 37.99 38.08 38.11 38.06 38.00 37.79 37.61 37.46 37.36 37.07 36.77 36.38 36.26 36.16 36.34 37.08 36.38 35.21 34.17 33.66 33.26 32.97 32.76 32.49 32.10 32.16 32.13 31.45 30.83 30.47 30.28 30.09 29.55 29.08 28.78 28.78 28.78 31.18 34.16 36.05 36.55 36.97 37.34 37.63 37.79 37.91 37.71 36.73 35.26 34.54 34.02 33.11 31.18 29.34 27.72 26.63 26.39 26.35 26.51 26.67 27.06 27.32 27.56 27.86 27.91
36.51 37.21 37.64 37.79 37.87 37.87 37.89 37.88 37.73 37.59 37.41 37.40 37.25 37.09 36.93 36.81 36.79 36.79 36.87 36.98 35.83 34.91 34.22 33.82 33.30 32.92 32.71 32.56 32.33 32.32 32.15 31.59 30.93 30.46 30.31 30.60 29.93 29.20 28.57 28.39 28.05 29.89 32.81 35.43 36.27 36.77 37.14 37.47 37.63 37.62 37.00 35.50 34.31 33.74 33.46 33.25 32.22 30.76 29.00 27.51 26.85 26.67 26.78 26.95 27.19 27.42 27.70 27.95 28.34
37.37 37.58 37.67 37.67 37.66 37.73 37.76 37.73 37.51 37.41 37.35 37.43 37.33 37.39 37.28 37.16 37.14 37.19 37.31 37.45 36.01 35.12 34.43 34.01 33.78 33.48 33.13 32.68 32.62 32.22 31.77 31.48 31.35 30.86 30.34 30.10 29.90 29.25 28.65 28.16 27.65 28.84 31.23 34.41 35.73 36.41 36.83 37.23 37.47 37.45 36.69 34.80 33.76 33.16 32.87 32.69 32.35 31.57 30.29 28.70 27.70 27.19 27.10 27.25 27.39 27.56 27.80 28.21 29.66
38.03 37.78 37.51 37.46 37.57 37.64 37.66 37.63 37.45 37.48 37.47 37.46 37.53 37.60 37.63 37.60 37.67 37.83 37.95 37.76 36.40 35.53 34.93 34.41 34.15 33.98 33.85 33.69 33.29 32.55 31.61 31.11 31.35 31.35 30.87 29.78 29.75 30.03 29.89 28.47 27.68 28.31 30.35 33.50 34.99 35.84 36.42 36.87 37.19 37.38 36.97 35.31 33.87 33.00 32.58 32.17 31.97 31.67 31.06 29.99 28.63 27.72 27.32 27.36 27.45 27.62 27.85 28.34 31.09
38.33 38.07 37.77 37.62 37.65 37.75 37.73 37.62 37.61 37.69 37.77 37.66 37.61 37.68 37.79 37.81 38.32 38.57 38.56 38.13 36.80 36.07 35.58 35.21 34.78 34.69 34.91 35.34 34.16 32.81 31.61 31.02 30.60 30.81 30.92 30.42 30.42 31.65 32.14 29.93 28.13 28.16 29.84 32.88 34.50 35.39 35.97 36.46 36.87 37.23 36.99 35.44 34.15 33.21 32.53 31.91 31.51 31.31 31.14 30.69 29.43 28.26 27.47 27.29 27.44 27.62 27.74 27.94 30.55
38.61 38.36 38.13 37.99 37.88 37.89 37.75 37.65 37.78 37.90 38.01 37.87 37.73 38.06 38.52 38.83 38.65 38.38 38.08 37.94 36.78 36.36 36.24 36.12 35.42 35.11 35.17 35.82 34.76 33.14 31.64 30.84 30.39 30.12 30.29 30.89 30.76 32.08 32.74 30.73 28.69 27.87 28.63 31.18 33.58 34.94 35.64 36.13 36.62 37.03 36.79 35.45 34.22 33.36 32.65 31.90 31.05 30.74 30.63 30.78 29.95 28.83 27.76 27.19 27.30 27.54 27.71 27.83 28.76
MSLP
1013.03 1013.11 1013.23 1013.27 1013.35 1013.39 1013.43 1013.39 1013.35 1013.39 1013.43 1013.43 1013.43 1013.43 1013.43 1013.47 1013.47 1013.43 1013.39 1013.43 1013.43 1013.43 1013.43 1013.43 1013.55 1013.67 1013.83 1013.99 1014.15 1014.23 1014.31 1014.43 1014.51 1014.55 1014.63 1014.71 1014.75 1014.87 1014.99 1015.15 1015.27 1015.43 1015.59 1015.71 1015.87 1015.99 1016.15 1016.31 1016.43 1016.55 1016.63 1016.71 1016.79 1016.87 1016.91 1016.99 1017.15 1017.27 1017.35 1017.47 1017.59 1017.71 1017.87 1017.99 1017.99 1018.03 1018.07 1018.15 1018.15
1012.87 1012.87 1012.87 1012.87 1012.91 1012.99 1013.03 1013.07 1013.03 1012.99 1012.99 1012.99 1013.03 1013.07 1013.11 1013.11 1013.07 1013.03 1013.03 1013.03 1012.99 1012.99 1013.03 1013.11 1013.19 1013.31 1013.47 1013.59 1013.71 1013.87 1014.03 1014.11 1014.19 1014.27 1014.35 1014.43 1014.47 1014.59 1014.71 1014.83 1014.95 1015.11 1015.23 1015.39 1015.55 1015.71 1015.83 1015.99 1016.15 1016.27 1016.35 1016.43 1016.55 1016.59 1016.63 1016.67 1016.87 1017.03 1017.15 1017.15 1017.27 1017.43 1017.63 1017.71 1017.71 1017.75 1017.87 1017.95 1017.99
1012.55 1012.55 1012.55 1012.63 1012.63 1012.71 1012.71 1012.71 1012.67 1012.67 1012.67 1012.67 1012.67 1012.71 1012.71 1012.71 1012.71 1012.71 1012.71 1012.67 1012.67 1012.71 1012.79 1012.87 1012.91 1013.03 1013.15 1013.27 1013.43 1013.55 1013.71 1013.79 1013.91 1014.03 1014.11 1014.15 1014.27 1014.35 1014.47 1014.55 1014.67 1014.75 1014.87 1015.03 1015.19 1015.35 1015.47 1015.67 1015.87 1015.95 1015.99 1016.11 1016.19 1016.27 1016.31 1016.43 1016.55 1016.71 1016.83 1016.87 1016.99 1017.19 1017.35 1017.43 1017.47 1017.59 1017.71 1017.79 1017.87
1012.35 1012.35 1012.35 1012.39 1012.35 1012.35 1012.35 1012.31 1012.31 1012.31 1012.31 1012.35 1012.35 1012.43 1012.43 1012.43 1012.39 1012.39 1012.39 1012.39 1012.43 1012.47 1012.51 1012.55 1012.63 1012.75 1012.87 1012.99 1013.15 1013.27 1013.35 1013.47 1013.63 1013.75 1013.83 1013.91 1013.99 1014.07 1014.15 1014.27 1014.39 1014.47 1014.59 1014.79 1014.91 1015.03 1015.15 1015.35 1015.51 1015.59 1015.67 1015.75 1015.87 1015.91 1015.99 1016.15 1016.35 1016.43 1016.51 1016.59 1016.79 1016.91 1017.03 1017.15 1017.27 1017.43 1017.55 1017.59 1017.71
1012.15 1012.15 1012.11 1012.11 1012.07 1011.99 1011.99 1011.99 1011.99 1011.99 1011.99 1012.03 1012.15 1012.15 1012.15 1012.11 1012.11 1012.11 1012.11 1012.15 1012.15 1012.15 1012.15 1012.27 1012.35 1012.43 1012.55 1012.71 1012.83 1012.95 1013.11 1013.19 1013.27 1013.43 1013.51 1013.59 1013.63 1013.71 1013.87 1013.95 1014.03 1014.15 1014.31 1014.47 1014.63 1014.75 1014.91 1015.07 1015.27 1015.31 1015.35 1015.43 1015.59 1015.67 1015.71 1015.87 1016.07 1016.19 1016.27 1016.43 1016.55 1016.63 1016.75 1016.87 1016.99 1017.15 1017.27 1017.35 1017.47
1012.03 1011.99 1011.91 1011.87 1011.87 1011.83 1011.79 1011.75 1011.71 1011.71 1011.75 1011.83 1011.87 1011.91 1011.87 1011.87 1011.87 1011.87 1011.87 1011.87 1011.87 1011.87 1011.95 1012.03 1012.11 1012.15 1012.27 1012.43 1012.55 1012.67 1012.79 1012.95 1012.99 1013.11 1013.19 1013.27 1013.35 1013.43 1013.55 1013.67 1013.75 1013.87 1014.03 1014.19 1014.35 1014.51 1014.71 1014.87 1014.99 1015.03 1015.15 1015.23 1015.31 1015.39 1015.51 1015.71 1015.87 1016.03 1016.15 1016.23 1016.27 1016.39 1016.51 1016.67 1016.79 1016.91 1017.03 1017.15 1017.27
1011.95 1011.87 1011.83 1011.79 1011.75 1011.71 1011.67 1011.59 1011.59 1011.59 1011.59 1011.63 1011.67 1011.67 1011.59 1011.59 1011.59 1011.59 1011.59 1011.63 1011.63 1011.71 1011.75 1011.83 1011.87 1011.91 1011.99 1012.15 1012.27 1012.39 1012.51 1012.63 1012.71 1012.79 1012.91 1012.99 1013.07 1013.19 1013.27 1013.39 1013.51 1013.67 1013.79 1013.95 1014.15 1014.27 1014.47 1014.67 1014.75 1014.83 1014.87 1014.99 1015.07 1015.19 1015.39 1015.59 1015.71 1015.83 1015.95 1016.03 1016.03 1016.15 1016.31 1016.47 1016.55 1016.71 1016.83 1016.95 1017.03
1011.87 1011.87 1011.79 1011.71 1011.67 1011.63 1011.59 1011.55 1011.51 1011.51 1011.47 1011.43 1011.43 1011.39 1011.31 1011.31 1011.35 1011.35 1011.39 1011.43 1011.47 1011.51 1011.55 1011.59 1011.63 1011.67 1011.75 1011.87 1011.99 1012.07 1012.15 1012.31 1012.43 1012.55 1012.63 1012.71 1012.83 1012.91 1013.03 1013.15 1013.27 1013.43 1013.55 1013.67 1013.87 1014.07 1014.23 1014.39 1014.47 1014.55 1014.59 1014.71 1014.87 1014.99 1015.15 1015.35 1015.47 1015.59 1015.67 1015.75 1015.87 1015.95 1016.11 1016.23 1016.39 1016.47 1016.59 1016.71 1016.83
1011.87 1011.79 1011.71 1011.67 1011.59 1011.59 1011.51 1011.43 1011.43 1011.43 1011.39 1011.27 1011.19 1011.15 1011.11 1011.11 1011.15 1011.15 1011.19 1011.23 1011.23 1011.23 1011.27 1011.31 1011.31 1011.43 1011.51 1011.59 1011.67 1011.75 1011.87 1011.99 1012.11 1012.23 1012.31 1012.43 1012.55 1012.71 1012.83 1012.95 1013.03 1013.15 1013.27 1013.43 1013.63 1013.79 1013.99 1014.15 1014.15 1014.19 1014.27 1014.43 1014.55 1014.71 1014.87 1015.07 1015.23 1015.35 1015.43 1015.55 1015.67 1015.79 1015.87 1015.99 1016.15 1016.27 1016.39 1016.51 1016.63
1011.87 1011.75 1011.67 1011.63 1011.55 1011.47 1011.43 1011.35 1011.35 1011.27 1011.27 1011.15 1011.03 1010.99 1010.95 1010.91 1010.91 1010.91 1010.91 1010.91 1010.95 1010.99 1010.99 1010.99 1011.07 1011.15 1011.27 1011.27 1011.39 1011.43 1011.55 1011.63 1011.79 1011.91 1012.03 1012.15 1012.27 1012.43 1012.55 1012.67 1012.75 1012.87 1012.99 1013.15 1013.31 1013.51 1013.71 1013.83 1013.87 1013.91 1013.99 1014.11 1014.27 1014.43 1014.59 1014.79 1014.99 1015.11 1015.15 1015.27 1015.43 1015.59 1015.71 1015.83 1015.95 1016.07 1016.15 1016.27 1016.43
1011.75 1011.63 1011.59 1011.51 1011.43 1011.31 1011.27 1011.27 1011.23 1011.15 1011.11 1011.03 1010.91 1010.83 1010.79 1010.75 1010.71 1010.67 1010.63 1010.67 1010.71 1010.71 1010.71 1010.71 1010.83 1010.91 1010.95 1010.99 1011.07 1011.15 1011.23 1011.31 1011.43 1011.59 1011.71 1011.87 1011.95 1012.07 1012.23 1012.35 1012.43 1012.55 1012.71 1012.87 1012.99 1013.19 1013.39 1013.47 1013.55 1013.63 1013.71 1013.87 1013.99 1014.19 1014.35 1014.51 1014.67 1014.83 1014.91 1015.03 1015.23 1015.39 1015.51 1015.55 1015.71 1015.83 1015.95 1016.03 1016.19
1011.59 1011.47 1011.43 1011.31 1011.23 1011.15 1011.15 1011.15 1011.07 1010.99 1010.91 1010.83 1010.71 1010.67 1010.59 1010.55 1010.47 1010.43 1010.43 1010.47 1010.47 1010.43 1010.39 1010.43 1010.55 1010.59 1010.63 1010.71 1010.75 1010.83 1010.91 1011.03 1011.15 1011.27 1011.43 1011.51 1011.63 1011.79 1011.87 1011.99 1012.11 1012.23 1012.35 1012.47 1012.67 1012.87 1012.99 1013.11 1013.15 1013.27 1013.43 1013.59 1013.71 1013.91 1014.07 1014.23 1014.43 1014.55 1014.67 1014.79 1014.99 1015.15 1015.23 1015.31 1015.43 1015.59 1015.67 1015.79 1015.95
1011.43 1011.35 1011.27 1011.15 1011.07 1011.03 1010.99 1010.99 1010.87 1010.83 1010.71 1010.63 1010.51 1010.43 1010.35 1010.27 1010.23 1010.23 1010.27 1010.27 1010.19 1010.15 1010.11 1010.15 1010.23 1010.31 1010.35 1010.39 1010.43 1010.55 1010.63 1010.71 1010.87 1010.95 1011.07 1011.19 1011.31 1011.47 1011.59 1011.67 1011.75 1011.87 1011.99 1012.15 1012.27 1012.43 1012.55 1012.67 1012.79 1012.95 1013.11 1013.27 1013.43 1013.59 1013.71 1013.95 1014.07 1014.23 1014.35 1014.51 1014.67 1014.83 1014.91 1015.03 1015.19 1015.31 1015.43 1015.59 1015.71
1011.35 1011.27 1011.15 1011.03 1010.99 1010.95 1010.87 1010.83 1010.75 1010.63 1010.55 1010.43 1010.27 1010.19 1010.11 1010.03 1009.99 1009.99 1009.99 1009.99 1009.91 1009.87 1009.87 1009.91 1009.99 1009.99 1009.99 1010.03 1010.15 1010.27 1010.31 1010.39 1010.51 1010.63 1010.71 1010.83 1010.99 1011.11 1011.23 1011.27 1011.39 1011.51 1011.63 1011.75 1011.91 1011.99 1012.11 1012.23 1012.39 1012.55 1012.71 1012.87 1013.03 1013.19 1013.39 1013.59 1013.71 1013.87 1013.99 1014.19 1014.31 1014.47 1014.55 1014.71 1014.91 1015.07 1015.23 1015.31 1015.39
1011.27 1011.15 1011.07 1010.99 1010.87 1010.87 1010.79 1010.71 1010.59 1010.51 1010.39 1010.27 1010.11 1009.99 1009.91 1009.87 1009.79 1009.75 1009.71 1009.71 1009.63 1009.63 1009.67 1009.71 1009.71 1009.67 1009.67 1009.71 1009.83 1009.91 1009.99 1010.07 1010.15 1010.27 1010.35 1010.47 1010.55 1010.71 1010.79 1010.87 1010.99 1011.15 1011.27 1011.43 1011.55 1011.63 1011.71 1011.79 1011.95 1012.15 1012.31 1012.51 1012.67 1012.87 1013.03 1013.23 1013.35 1013.51 1013.63 1013.75 1013.91 1014.07 1014.27 1014.43 1014.67 1014.83 1014.91 1014.99 1015.11
1011.15 1011.03 1010.95 1010.87 1010.79 1010.71 1010.63 1010.55 1010.43 1010.31 1010.19 1010.07 1009.87 1009.79 1009.71 1009.63 1009.59 1009.55 1009.51 1009.43 1009.39 1009.39 1009.43 1009.43 1009.43 1009.43 1009.43 1009.43 1009.55 1009.59 1009.67 1009.75 1009.83 1009.87 1009.99 1010.07 1010.19 1010.27 1010.39 1010.51 1010.59 1010.75 1010.87 1011.03 1011.15 1011.27 1011.31 1011.43 1011.59 1011.79 1011.99 1012.15 1012.31 1012.47 1012.67 1012.87 1013.03 1013.15 1013.27 1013.39 1013.59 1013.75 1013.95 1014.15 1014.35 1014.47 1014.55 1014.67 1014.79
1011.07 1010.91 1010.83 1010.79 1010.71 1010.59 1010.51 1010.39 1010.27 1010.15 1010.03 1009.87 1009.71 1009.63 1009.55 1009.47 1009.39 1009.35 1009.27 1009.23 1009.15 1009.15 1009.15 1009.15 1009.15 1009.19 1009.23 1009.23 1009.27 1009.35 1009.43 1009.47 1009.51 1009.55 1009.59 1009.67 1009.79 1009.91 1010.03 1010.15 1010.23 1010.35 1010.51 1010.71 1010.83 1010.91 1011.03 1011.15 1011.27 1011.51 1011.71 1011.87 1011.99 1012.15 1012.35 1012.55 1012.71 1012.87 1012.95 1013.11 1013.27 1013.43 1013.59 1013.79 1013.99 1014.15 1014.27 1014.39 1014.47
1010.99 1010.87 1010.75 1010.67 1010.59 1010.51 1010.39 1010.27 1010.15 1009.99 1009.87 1009.71 1009.59 1009.47 1009.35 1009.27 1009.23 1009.15 1009.07 1008.99 1008.99 1008.99 1008.95 1008.91 1008.91 1008.95 1008.99 1008.99 1009.03 1009.07 1009.15 1009.19 1009.19 1009.23 1009.27 1009.35 1009.47 1009.59 1009.67 1009.79 1009.87 1010.03 1010.19 1010.35 1010.47 1010.59 1010.71 1010.87 1011.03 1011.23 1011.43 1011.59 1011.71 1011.87 1012.03 1012.23 1012.35 1012.51 1012.67 1012.83 1012.99 1013.15 1013.27 1013.43 1013.59 1013.79 1013.95 1014.03 1014.15
1010.87 1010.75 1010.67 1010.55 1010.51 1010.39 1010.27 1010.15 1009.99 1009.87 1009.67 1009.51 1009.39 1009.27 1009.15 1009.07 1009.03 1008.95 1008.87 1008.83 1008.79 1008.79 1008.79 1008.75 1008.75 1008.75 1008.75 1008.75 1008.83 1008.87 1008.87 1008.91 1008.99 1008.99 1009.07 1009.15 1009.27 1009.31 1009.43 1009.47 1009.59 1009.75 1009.91 1010.03 1010.15 1010.23 1010.39 1010.55 1010.75 1010.95 1011.15 1011.31 1011.47 1011.59 1011.75 1011.95 1012.07 1012.19 1012.39 1012.55 1012.67 1012.83 1012.99 1013.15 1013.27 1013.43 1013.59 1013.67 1013.75
1010.79 1010.71 1010.59 1010.47 1010.35 1010.27 1010.15 1009.99 1009.83 1009.63 1009.47 1009.31 1009.19 1009.07 1008.95 1008.87 1008.79 1008.75 1008.71 1008.59 1008.55 1008.59 1008.63 1008.63 1008.59 1008.59 1008.59 1008.59 1008.67 1008.67 1008.67 1008.71 1008.79 1008.87 1008.91 1008.99 1009.03 1009.15 1009.15 1009.27 1009.39 1009.51 1009.63 1009.71 1009.83 1009.95 1010.11 1010.27 1010.43 1010.63 1010.83 1010.99 1011.19 1011.35 1011.47 1011.67 1011.83 1011.95 1012.11 1012.27 1012.39 1012.51 1012.63 1012.75 1012.91 1013.03 1013.19 1013.31 1013.43
1010.71 1010.55 1010.43 1010.31 1010.23 1010.11 1009.95 1009.79 1009.63 1009.47 1009.31 1009.15 1008.99 1008.87 1008.71 1008.63 1008.55 1008.55 1008.47 1008.39 1008.39 1008.43 1008.47 1008.47 1008.43 1008.43 1008.47 1008.47 1008.55 1008.55 1008.55 1008.55 1008.63 1008.71 1008.71 1008.79 1008.87 1008.91 1008.95 1009.03 1009.15 1009.27 1009.39 1009.47 1009.55 1009.63 1009.79 1009.95 1010.15 1010.31 1010.51 1010.67 1010.87 1010.99 1011.15 1011.35 1011.51 1011.67 1011.83 1011.95 1012.03 1012.15 1012.27 1012.43 1012.55 1012.71 1012.83 1012.95 1013.07
1010.55 1010.43 1010.31 1010.23 1010.11 1009.95 1009.79 1009.63 1009.47 1009.31 1009.15 1008.99 1008.83 1008.67 1008.55 1008.47 1008.39 1008.27 1008.23 1008.23 1008.27 1008.31 1008.31 1008.27 1008.27 1008.27 1008.31 1008.35 1008.39 1008.43 1008.43 1008.47 1008.55 1008.55 1008.59 1008.63 1008.67 1008.71 1008.75 1008.87 1008.99 1009.11 1009.15 1009.19 1009.27 1009.39 1009.51 1009.67 1009.87 1010.03 1010.23 1010.39 1010.51 1010.67 1010.87 1010.99 1011.15 1011.35 1011.47 1011.59 1011.71 1011.83 1011.95 1012.11 1012.23 1012.35 1012.43 1012.55 1012.71
1010.43 1010.31 1010.23 1010.11 1009.99 1009.83 1009.67 1009.51 1009.35 1009.19 1009.03 1008.87 1008.67 1008.51 1008.39 1008.27 1008.15 1008.07 1008.07 1008.07 1008.11 1008.15 1008.11 1008.11 1008.15 1008.15 1008.15 1008.15 1008.23 1008.27 1008.35 1008.39 1008.43 1008.43 1008.43 1008.51 1008.55 1008.59 1008.63 1008.71 1008.83 1008.87 1008.87 1008.91 1009.03 1009.19 1009.35 1009.51 1009.63 1009.79 1009.95 1010.11 1010.27 1010.39 1010.55 1010.71 1010.87 1011.03 1011.15 1011.27 1011.43 1011.55 1011.67 1011.79 1011.91 1012.03 1012.15 1012.27 1012.43
1010.35 1010.23 1010.11 1009.99 1009.87 1009.71 1009.59 1009.43 1009.23 1009.07 1008.91 1008.71 1008.51 1008.35 1008.23 1008.07 1007.99 1007.91 1007.91 1007.91 1007.91 1007.91 1007.91 1007.91 1007.95 1007.99 1007.99 1008.07 1008.11 1008.15 1008.19 1008.23 1008.27 1008.27 1008.27 1008.35 1008.43 1008.47 1008.55 1008.55 1008.59 1008.55 1008.55 1008.67 1008.79 1008.95 1009.15 1009.31 1009.43 1009.59 1009.71 1009.87 1009.99 1010.11 1010.27 1010.39 1010.55 1010.67 1010.83 1010.99 1011.15 1011.27 1011.43 1011.55 1011.67 1011.75 1011.87 1011.99 1012.15
1010.27 1010.15 1009.99 1009.87 1009.75 1009.59 1009.43 1009.27 1009.11 1008.91 1008.71 1008.47 1008.31 1008.15 1007.99 1007.87 1007.79 1007.75 1007.75 1007.71 1007.71 1007.71 1007.71 1007.75 1007.79 1007.83 1007.87 1007.91 1007.95 1007.99 1007.99 1007.99 1008.07 1008.11 1008.15 1008.23 1008.27 1008.31 1008.39 1008.39 1008.35 1008.35 1008.35 1008.43 1008.43 1008.55 1008.71 1008.95 1009.15 1009.31 1009.43 1009.59 1009.71 1009.83 1009.95 1010.07 1010.15 1010.31 1010.47 1010.67 1010.87 1010.99 1011.15 1011.27 1011.39 1011.47 1011.59 1011.71 1011.83
1010.15 1010.03 1009.91 1009.79 1009.63 1009.47 1009.31 1009.15 1008.91 1008.71 1008.47 1008.27 1008.11 1007.99 1007.83 1007.71 1007.59 1007.59 1007.55 1007.51 1007.47 1007.47 1007.51 1007.59 1007.59 1007.63 1007.67 1007.71 1007.75 1007.75 1007.75 1007.79 1007.83 1007.87 1007.99 1008.03 1008.07 1008.11 1008.15 1008.15 1008.15 1008.15 1008.15 1008.15 1008.15 1008.23 1008.35 1008.51 1008.71 1008.91 1009.15 1009.27 1009.43 1009.55 1009.67 1009.79 1009.87 1009.99 1010.15 1010.27 1010.47 1010.63 1010.79 1010.91 1010.99 1011.11 1011.23 1011.35 1011.43
1009.99 1009.91 1009.79 1009.63 1009.47 1009.31 1009.11 1008.87 1008.71 1008.47 1008.27 1008.11 1007.95 1007.79 1007.59 1007.47 1007.43 1007.39 1007.31 1007.31 1007.27 1007.27 1007.31 1007.35 1007.43 1007.43 1007.43 1007.51 1007.55 1007.55 1007.51 1007.51 1007.55 1007.59 1007.67 1007.71 1007.79 1007.87 1007.87 1007.87 1007.87 1007.87 1007.91 1007.91 1007.91 1007.99 1008.03 1008.15 1008.27 1008.43 1008.71 1008.99 1009.15 1009.23 1009.31 1009.43 1009.59 1009.71 1009.87 1009.99 1010.11 1010.23 1010.31 1010.43 1010.51 1010.67 1010.83 1010.95 1011.07
1009.91 1009.79 1009.63 1009.47 1009.31 1009.11 1008.87 1008.63 1008.43 1008.27 1008.03 1007.87 1007.71 1007.55 1007.39 1007.27 1007.23 1007.15 1007.15 1007.07 1007.07 1007.11 1007.15 1007.19 1007.19 1007.23 1007.27 1007.27 1007.27 1007.27 1007.23 1007.23 1007.27 1007.27 1007.35 1007.43 1007.47 1007.51 1007.51 1007.51 1007.51 1007.59 1007.59 1007.59 1007.67 1007.71 1007.75 1007.79 1007.87 1007.95 1008.15 1008.47 1008.75 1008.91 1009.03 1009.15 1009.27 1009.43 1009.59 1009.71 1009.75 1009.87 1009.91 1009.99 1010.11 1010.27 1010.43 1010.55 1010.67
1009.75 1009.63 1009.47 1009.31 1009.11 1008.87 1008.63 1008.43 1008.23 1008.03 1007.83 1007.63 1007.47 1007.31 1007.19 1007.07 1006.99 1006.99 1006.91 1006.87 1006.91 1006.95 1006.95 1006.99 1006.99 1007.03 1007.11 1007.07 1006.99 1006.99 1006.99 1006.99 1006.99 1006.99 1007.07 1007.11 1007.15 1007.15 1007.11 1007.15 1007.15 1007.15 1007.23 1007.27 1007.35 1007.39 1007.43 1007.43 1007.47 1007.55 1007.67 1007.91 1008.31 1008.55 1008.71 1008.87 1008.99 1009.11 1009.19 1009.31 1009.39 1009.47 1009.59 1009.63 1009.79 1009.91 1009.99 1010.15 1010.27
1009.59 1009.43 1009.31 1009.15 1008.87 1008.63 1008.39 1008.19 1007.99 1007.75 1007.59 1007.43 1007.23 1007.11 1006.99 1006.91 1006.83 1006.79 1006.71 1006.71 1006.71 1006.71 1006.71 1006.71 1006.75 1006.83 1006.83 1006.75 1006.71 1006.71 1006.71 1006.71 1006.75 1006.79 1006.83 1006.83 1006.83 1006.79 1006.75 1006.79 1006.79 1006.83 1006.87 1006.95 1006.99 1007.07 1007.11 1007.15 1007.15 1007.23 1007.27 1007.39 1007.75 1008.11 1008.31 1008.47 1008.55 1008.71 1008.79 1008.87 1008.95 1009.07 1009.19 1009.31 1009.43 1009.55 1009.67 1009.79 1009.95
1009.35 1009.23 1009.07 1008.87 1008.63 1008.39 1008.15 1007.91 1007.71 1007.55 1007.35 1007.15 1007.07 1006.91 1006.79 1006.71 1006.63 1006.55 1006.47 1006.43 1006.39 1006.35 1006.35 1006.43 1006.51 1006.51 1006.47 1006.43 1006.47 1006.47 1006.47 1006.43 1006.51 1006.55 1006.55 1006.51 1006.47 1006.43 1006.43 1006.43 1006.47 1006.51 1006.55 1006.59 1006.71 1006.71 1006.75 1006.79 1006.87 1006.87 1006.91 1006.99 1007.23 1007.59 1007.87 1008.03 1008.19 1008.27 1008.35 1008.43 1008.55 1008.67 1008.83 1008.99 1009.11 1009.19 1009.31 1009.43 1009.59
1009.11 1008.99 1008.79 1008.59 1008.39 1008.11 1007.87 1007.67 1007.47 1007.31 1007.15 1006.99 1006.87 1006.71 1006.63 1006.51 1006.39 1006.27 1006.15 1006.15 1006.07 1006.07 1006.11 1006.15 1006.23 1006.19 1006.15 1006.15 1006.19 1006.19 1006.19 1006.19 1006.23 1006.23 1006.23 1006.23 1006.15 1006.15 1006.15 1006.15 1006.19 1006.23 1006.27 1006.31 1006.35 1006.39 1006.43 1006.43 1006.47 1006.55 1006.55 1006.67 1006.79 1007.07 1007.39 1007.59 1007.75 1007.87 1007.95 1008.03 1008.15 1008.27 1008.43 1008.63 1008.75 1008.87 1008.99 1009.15 1009.27
1008.87 1008.71 1008.55 1008.35 1008.11 1007.87 1007.59 1007.43 1007.23 1007.07 1006.91 1006.79 1006.67 1006.55 1006.43 1006.27 1006.15 1006.03 1005.95 1005.87 1005.87 1005.87 1005.87 1005.87 1005.91 1005.87 1005.87 1005.87 1005.87 1005.87 1005.87 1005.87 1005.87 1005.87 1005.87 1005.87 1005.87 1005.87 1005.87 1005.91 1005.91 1005.99 1005.99 1006.07 1006.11 1006.11 1006.07 1006.07 1006.15 1006.19 1006.27 1006.31 1006.43 1006.63 1006.91 1007.15 1007.35 1007.51 1007.59 1007.67 1007.75 1007.87 1008.07 1008.23 1008.39 1008.51 1008.63 1008.79 1008.91
1008.63 1008.47 1008.31 1008.11 1007.87 1007.59 1007.39 1007.19 1006.99 1006.87 1006.71 1006.59 1006.43 1006.31 1006.19 1006.11 1005.95 1005.83 1005.71 1005.59 1005.59 1005.55 1005.55 1005.55 1005.51 1005.51 1005.47 1005.47 1005.51 1005.51 1005.51 1005.47 1005.51 1005.55 1005.55 1005.55 1005.59 1005.63 1005.63 1005.59 1005.63 1005.71 1005.75 1005.79 1005.83 1005.83 1005.79 1005.79 1005.83 1005.87 1005.95 1005.99 1006.15 1006.27 1006.47 1006.71 1006.87 1007.03 1007.15 1007.27 1007.39 1007.55 1007.71 1007.87 1007.99 1008.15 1008.31 1008.43 1008.55
1008.39 1008.23 1007.99 1007.75 1007.51 1007.27 1007.11 1006.95 1006.79 1006.67 1006.55 1006.43 1006.27 1006.11 1005.99 1005.87 1005.79 1005.63 1005.47 1005.31 1005.27 1005.23 1005.15 1005.15 1005.15 1005.11 1005.11 1005.11 1005.15 1005.15 1005.15 1005.15 1005.15 1005.19 1005.23 1005.27 1005.31 1005.31 1005.27 1005.27 1005.27 1005.39 1005.43 1005.51 1005.55 1005.55 1005.55 1005.51 1005.55 1005.59 1005.67 1005.75 1005.87 1005.99 1006.11 1006.27 1006.43 1006.55 1006.67 1006.87 1006.99 1007.15 1007.31 1007.47 1007.63 1007.79 1007.99 1008.11 1008.23
1008.11 1007.95 1007.71 1007.43 1007.19 1007.03 1006.87 1006.71 1006.59 1006.47 1006.35 1006.23 1006.07 1005.91 1005.79 1005.63 1005.51 1005.39 1005.27 1005.07 1004.99 1004.95 1004.87 1004.83 1004.79 1004.83 1004.83 1004.79 1004.79 1004.79 1004.79 1004.79 1004.79 1004.83 1004.87 1004.95 1004.99 1005.03 1004.99 1004.95 1004.99 1005.07 1005.15 1005.19 1005.23 1005.27 1005.27 1005.27 1005.27 1005.31 1005.39 1005.51 1005.59 1005.71 1005.75 1005.87 1005.95 1006.11 1006.27 1006.43 1006.55 1006.71 1006.87 1007.07 1007.27 1007.43 1007.59 1007.71 1007.87
1007.79 1007.59 1007.35 1007.15 1006.95 1006.79 1006.67 1006.55 1006.43 1006.27 1006.15 1005.99 1005.83 1005.71 1005.59 1005.39 1005.23 1005.07 1004.95 1004.87 1004.79 1004.71 1004.59 1004.55 1004.51 1004.51 1004.47 1004.43 1004.43 1004.39 1004.35 1004.39 1004.43 1004.47 1004.51 1004.55 1004.63 1004.71 1004.67 1004.67 1004.71 1004.79 1004.87 1004.95 1004.99 1004.99 1004.99 1004.99 1005.03 1005.07 1005.15 1005.23 1005.31 1005.39 1005.43 1005.51 1005.55 1005.63 1005.83 1005.99 1006.15 1006.27 1006.43 1006.67 1006.83 1006.99 1007.15 1007.27 1007.43
1007.39 1007.23 1007.07 1006.91 1006.75 1006.55 1006.43 1006.35 1006.23 1006.11 1005.91 1005.75 1005.59 1005.43 1005.27 1005.15 1004.99 1004.83 1004.71 1004.59 1004.55 1004.43 1004.35 1004.27 1004.23 1004.15 1004.11 1004.07 1004.03 1003.99 1003.99 1003.99 1004.07 1004.15 1004.15 1004.23 1004.27 1004.31 1004.39 1004.39 1004.43 1004.55 1004.63 1004.71 1004.71 1004.71 1004.71 1004.71 1004.75 1004.83 1004.87 1004.95 1004.99 1005.07 1005.15 1005.19 1005.15 1005.19 1005.31 1005.51 1005.67 1005.87 1006.07 1006.27 1006.43 1006.55 1006.71 1006.79 1006.91
1006.99 1006.91 1006.83 1006.71 1006.55 1006.39 1006.23 1006.15 1005.99 1005.87 1005.67 1005.51 1005.35 1005.19 1005.03 1004.87 1004.71 1004.55 1004.43 1004.31 1004.27 1004.19 1004.11 1003.99 1003.91 1003.83 1003.75 1003.71 1003.71 1003.67 1003.67 1003.67 1003.71 1003.71 1003.79 1003.87 1003.87 1003.95 1004.03 1004.11 1004.15 1004.27 1004.35 1004.43 1004.47 1004.47 1004.47 1004.51 1004.51 1004.51 1004.55 1004.63 1004.71 1004.79 1004.87 1004.87 1004.87 1004.87 1004.91 1005.03 1005.19 1005.43 1005.63 1005.83 1005.99 1006.07 1006.19 1006.31 1006.43
1006.75 1006.63 1006.55 1006.43 1006.31 1006.15 1005.99 1005.87 1005.71 1005.59 1005.43 1005.27 1005.15 1004.95 1004.79 1004.63 1004.47 1004.27 1004.15 1004.03 1003.99 1003.91 1003.83 1003.71 1003.59 1003.47 1003.43 1003.43 1003.43 1003.39 1003.35 1003.31 1003.35 1003.39 1003.43 1003.47 1003.51 1003.59 1003.67 1003.75 1003.87 1003.95 1004.07 1004.15 1004.19 1004.23 1004.23 1004.23 1004.23 1004.23 1004.27 1004.31 1004.43 1004.47 1004.55 1004.59 1004.59 1004.59 1004.59 1004.63 1004.79 1004.99 1005.15 1005.39 1005.55 1005.63 1005.71 1005.87 1005.99
1006.51 1006.39 1006.27 1006.15 1006.03 1005.95 1005.79 1005.63 1005.47 1005.27 1005.15 1005.03 1004.87 1004.71 1004.55 1004.35 1004.19 1004.03 1003.91 1003.83 1003.71 1003.67 1003.55 1003.43 1003.27 1003.23 1003.15 1003.11 1003.07 1003.07 1003.03 1002.99 1003.03 1003.03 1003.07 1003.15 1003.19 1003.23 1003.31 1003.43 1003.55 1003.67 1003.79 1003.87 1003.95 1003.95 1003.95 1003.95 1003.95 1003.95 1003.95 1004.03 1004.15 1004.19 1004.27 1004.27 1004.27 1004.27 1004.23 1004.27 1004.39 1004.55 1004.71 1004.91 1005.11 1005.23 1005.31 1005.43 1005.59
Wind_Speed
9 8 8 8 7 7 7 7 8 7 7 7 7 7 7 7 8 7 7 6 6 6 6 6 6 6 7 9 11 12 13 13 14 14 15 15 15 15 15 14 14 13 13 13 13 12 11 12 11 9 8 8 9 9 9 9 10 11 11 12 11 10 11 12 12 13 14 13 10
9 9 9 9 9 8 7 7 7 8 7 7 7 7 7 7 7 7 7 7 7 6 6 6 6 6 8 10 12 12 13 13 14 15 15 16 15 15 15 14 14 14 14 14 13 12 11 12 11 10 9 8 9 9 10 10 10 11 12 13 11 10 10 11 12 13 14 13 11
9 9 9 9 9 8 7 7 8 8 9 8 7 7 7 7 7 7 7 7 7 6 6 5 6 7 9 10 11 11 12 13 14 14 14 14 15 15 15 14 15 15 15 14 13 12 11 12 11 10 10 9 9 10 10 10 10 11 12 13 10 9 9 10 11 11 11 10 11
9 9 9 9 10 11 10 9 9 9 9 8 7 7 7 7 7 7 7 7 7 7 7 6 6 7 8 9 10 11 12 13 14 14 14 14 15 15 16 15 15 15 15 14 14 13 13 12 11 10 10 10 11 10 10 9 10 10 10 11 9 9 9 9 9 9 9 9 10
8 9 9 9 11 11 11 10 10 10 9 7 6 7 7 7 7 7 7 7 7 7 7 8 7 7 8 8 10 11 12 13 14 14 14 14 15 15 15 16 16 15 14 14 14 14 13 13 10 9 9 10 9 9 9 9 10 10 9 8 8 8 8 8 8 8 8 8 8
7 8 9 9 10 10 10 9 10 10 8 7 8 8 8 7 7 7 8 8 8 8 8 9 8 8 8 8 10 11 11 12 13 13 14 14 14 15 15 16 16 15 14 14 14 14 14 13 10 9 9 8 8 9 9 10 10 10 9 8 8 8 8 8 8 7 8 9 9
7 7 8 8 9 9 9 9 9 9 8 7 9 10 11 9 9 9 10 9 8 7 8 8 8 9 9 9 9 10 11 11 12 13 14 14 14 14 15 15 15 15 14 14 14 13 13 13 10 9 9 8 7 8 9 10 10 10 10 10 8 7 8 8 7 7 9 11 12
6 7 7 8 8 8 9 9 8 8 8 8 10 11 12 11 11 11 10 9 8 7 7 7 8 9 10 9 10 10 11 11 12 12 13 13 14 14 14 15 15 15 15 14 13 13 13 12 10 10 9 8 7 8 9 11 11 11 11 11 9 8 7 7 7 8 9 12 13
6 7 7 8 8 8 8 8 8 8 9 10 11 12 12 12 11 11 10 9 8 8 8 8 9 10 10 10 11 11 11 11 12 12 12 13 13 14 14 13 14 14 14 13 13 14 13 12 11 10 9 8 8 8 10 12 12 13 12 12 9 8 8 8 8 9 10 12 13
6 6 7 7 8 8 9 8 8 9 10 11 12 12 12 12 12 11 10 8 8 8 8 9 9 10 11 11 11 11 11 10 11 12 12 13 13 14 14 13 14 14 14 13 13 13 13 12 12 11 10 9 10 10 10 12 13 14 13 10 9 10 10 9 10 11 11 12 13
7 7 7 7 8 9 9 8 9 9 10 11 12 12 12 12 12 11 10 8 8 10 10 9 10 10 11 11 11 11 11 10 10 11 12 13 13 14 14 13 14 14 14 13 12 12 12 12 13 13 13 11 11 10 11 12 13 14 13 11 11 11 12 11 12 12 12 12 13
7 7 7 7 8 8 8 8 8 8 9 11 12 12 12 12 12 11 11 10 11 11 10 10 10 11 11 10 10 11 11 10 10 11 11 12 13 14 14 14 14 14 14 14 13 12 12 13 14 14 15 14 11 10 11 12 14 14 14 13 13 13 13 13 13 12 11 12 12
7 7 7 8 8 8 8 8 8 8 9 11 11 11 11 11 11 11 11 12 12 11 10 9 10 10 10 10 10 10 10 10 11 11 11 12 12 13 14 14 14 14 14 14 13 12 12 13 15 15 16 15 13 11 12 13 14 15 15 15 14 14 14 14 14 13 12 12 13
7 7 7 8 8 8 8 8 7 8 9 11 11 11 11 10 11 10 11 11 12 11 10 10 9 10 10 10 10 10 11 11 11 12 12 12 13 13 14 14 14 14 14 13 13 14 14 15 15 16 16 17 15 14 13 14 14 15 16 16 16 16 15 15 14 14 14 14 14
7 8 8 7 7 7 7 7 7 8 9 10 11 10 10 10 10 10 10 11 12 11 10 9 9 10 10 11 11 11 11 11 12 12 13 13 13 14 14 14 14 14 14 13 14 14 15 16 16 16 17 17 17 16 15 14 15 15 16 17 17 17 16 15 15 15 15 15 15
7 8 7 6 7 7 8 8 7 8 8 10 10 10 10 9 9 9 10 11 11 10 10 10 10 10 10 10 11 11 12 12 13 13 13 14 14 14 14 14 15 15 14 14 14 15 15 16 16 16 16 17 17 16 16 15 15 16 16 17 17 17 16 16 15 15 16 16 16
8 8 7 7 8 8 9 9 8 8 9 10 10 10 10 9 9 9 10 11 10 10 10 11 10 10 10 10 10 11 11 12 13 13 14 14 14 14 14 15 15 15 15 15 15 15 15 15 15 15 15 16 16 16 16 15 15 15 16 17 17 17 16 16 16 16 16 17 17
8 8 8 8 9 9 10 10 9 10 10 11 11 10 10 9 9 10 10 11 10 11 11 12 11 10 10 11 10 10 10 11 12 13 13 13 14 14 14 14 14 14 14 15 16 16 16 16 15 15 15 15 15 15 15 15 15 15 16 16 16 16 16 16 16 16 16 17 18
8 8 9 9 9 10 10 10 10 11 11 11 11 11 10 10 11 11 10 11 11 11 11 12 11 11 11 11 11 10 10 11 12 13 13 13 13 13 13 14 14 14 14 15 15 16 16 16 15 15 15 14 14 14 14 14 14 15 15 15 16 16 16 16 16 16 16 17 18
8 9 9 10 10 10 10 11 11 11 11 11 11 11 12 11 11 11 12 12 11 11 11 11 11 11 11 11 11 11 11 10 11 12 13 12 12 13 13 13 13 13 14 14 15 15 16 16 16 16 15 15 15 15 15 15 15 15 15 14 15 16 16 16 16 17 17 17 18
9 9 10 10 10 10 11 11 12 12 12 12 12 12 12 12 12 12 12 12 11 11 11 12 12 12 11 11 11 11 11 10 10 11 12 12 12 13 13 12 12 13 13 14 14 15 15 16 16 15 15 15 16 15 15 15 15 15 15 14 15 16 16 17 17 17 17 17 18
9 9 9 10 10 11 11 12 12 12 12 13 12 12 12 12 12 12 12 11 10 10 11 12 12 12 12 11 11 11 10 9 10 11 11 11 11 11 12 11 12 12 13 14 14 14 15 15 15 15 15 15 15 15 15 15 15 15 15 15 16 16 16 17 17 17 18 18 18
9 9 9 9 10 11 12 12 12 13 13 13 13 13 12 12 12 11 11 10 10 11 11 11 11 11 11 11 11 11 10 10 11 11 11 10 10 11 11 11 12 13 14 13 13 13 13 13 14 14 14 14 15 15 16 16 15 15 15 16 16 16 16 17 17 17 17 18 18
10 9 9 9 10 11 12 12 12 13 13 13 13 13 13 12 11 11 10 10 10 11 11 10 10 10 10 10 10 11 11 11 12 12 11 11 11 11 11 10 12 13 13 12 12 13 13 12 12 12 13 13 14 14 15 15 15 15 15 16 16 16 16 17 17 17 18 18 18
10 10 10 10 10 11 12 12 12 13 13 13 13 13 13 12 11 10 10 10 10 10 11 10 10 9 9 9 10 10 11 12 12 12 12 12 11 11 10 10 11 11 11 11 16 19 19 16 14 12 11 12 13 13 13 14 15 15 15 15 16 16 16 17 17 18 18 18 18
10 10 10 11 11 12 12 13 13 13 13 13 13 12 12 12 11 10 10 10 10 10 10 10 10 10 9 9 10 10 11 11 11 12 12 12 12 12 11 10 10 9 10 12 19 23 24 24 21 17 13 11 12 12 13 13 15 15 15 16 16 16 16 17 18 18 19 18 19
11 11 11 11 12 12 13 13 12 12 12 12 12 12 12 11 10 10 10 10 10 9 9 9 9 9 9 9 10 11 11 11 11 11 12 12 12 12 12 11 10 9 10 15 20 24 26 27 26 24 19 13 12 12 13 13 14 14 15 16 16 17 17 18 18 19 19 19 19
12 11 12 12 12 12 13 12 12 12 12 12 12 11 11 10 10 10 10 9 9 8 7 7 7 7 7 8 10 11 12 11 11 11 11 12 12 13 13 12 11 11 13 18 22 24 26 27 28 27 24 18 13 12 13 13 13 13 14 15 15 17 17 18 17 18 19 19 19
12 12 12 12 12 13 12 12 12 12 12 12 11 11 10 10 10 10 9 9 8 8 7 6 6 6 6 8 10 11 11 12 11 11 11 11 13 13 14 14 13 14 16 21 23 25 26 26 27 28 27 24 15 12 11 12 12 13 13 13 14 16 16 17 16 16 17 18 18
12 12 12 12 12 12 12 12 12 12 12 11 11 10 10 10 10 10 10 9 9 9 8 6 6 7 8 10 10 10 10 11 10 10 11 12 13 14 14 15 14 14 17 22 24 25 26 26 27 28 28 27 19 14 11 12 12 13 13 13 15 16 17 17 17 18 17 17 17
12 12 12 12 12 13 13 13 12 12 12 11 10 10 10 10 10 9 9 8 9 8 7 7 8 10 11 11 10 10 10 10 10 11 12 13 14 15 15 15 14 15 17 22 24 25 26 26 27 27 28 28 22 16 12 12 13 13 14 14 15 17 17 17 18 18 18 18 18
12 12 11 12 12 12 13 12 12 12 11 11 11 10 10 10 9 8 7 7 7 7 7 8 9 10 11 10 10 10 11 11 12 12 12 13 14 14 14 14 14 15 17 22 24 26 26 26 27 27 27 28 23 17 13 13 14 14 15 15 17 17 17 16 16 17 19 19 18
12 11 11 11 12 12 12 12 11 11 11 11 10 10 10 10 9 8 7 6 6 7 8 8 10 11 11 10 11 12 12 12 13 13 14 14 14 14 14 14 13 14 18 22 24 26 26 26 27 27 27 28 23 17 14 14 13 13 14 15 16 18 18 18 17 17 18 19 18
11 11 11 11 12 12 12 12 11 11 11 11 11 11 10 9 9 8 8 7 6 7 7 8 9 10 10 10 10 11 13 12 13 13 13 13 13 14 14 13 11 13 18 22 24 25 26 26 26 26 27 27 21 17 14 14 14 14 15 16 16 17 18 18 18 18 18 18 17
11 11 11 12 12 12 12 12 11 11 11 12 12 11 10 9 9 9 8 8 7 7 7 8 8 8 9 10 10 11 12 13 13 13 13 13 13 14 14 14 12 14 19 22 24 25 25 26 26 26 26 24 18 15 14 15 14 15 16 17 17 18 18 18 18 17 17 18 18
11 11 11 12 12 12 12 12 12 12 12 12 12 12 11 9 9 8 8 8 7 7 7 7 7 8 9 10 10 11 12 13 13 13 13 13 13 13 14 14 13 15 19 22 23 24 25 25 25 26 25 20 15 13 13 13 13 14 16 18 18 19 19 18 18 17 17 17 17
11 11 11 12 12 12 12 12 12 12 12 12 12 11 11 10 9 8 7 7 7 7 7 7 7 8 9 10 11 11 12 12 12 13 13 13 13 13 14 14 13 15 18 21 23 24 24 24 25 25 23 17 13 12 12 12 11 12 14 17 17 18 18 17 17 17 17 17 18
11 11 11 11 12 12 12 12 12 12 13 13 11 10 9 9 8 8 8 7 7 7 7 7 8 9 9 9 11 12 12 12 12 13 13 13 13 13 13 14 13 13 15 20 22 23 24 24 25 24 22 16 13 11 11 11 11 11 12 13 15 16 17 15 15 15 16 18 21
11 11 11 11 12 12 12 12 12 12 13 13 11 11 10 9 8 7 7 7 7 7 7 7 8 9 9 10 10 11 11 11 12 12 13 13 13 13 14 14 12 12 14 18 21 23 24 24 24 25 23 17 13 11 10 10 11 11 11 11 12 14 15 14 14 14 15 18 24
12 11 11 11 12 12 12 12 13 12 12 11 11 11 10 9 9 8 8 7 7 7 7 8 9 10 10 10 10 10 10 11 11 12 12 13 13 15 15 14 12 12 14 17 21 23 24 24 25 25 23 17 13 11 10 10 11 12 11 10 10 11 12 13 13 13 14 16 22
12 11 11 12 12 12 12 13 13 12 12 11 11 10 9 9 8 8 7 7 7 7 7 8 9 10 10 10 10 10 10 10 10 11 11 12 13 14 15 13 12 12 12 16 20 22 23 24 25 25 23 17 13 10 9 9 11 12 13 11 10 9 10 11 12 12 13 14 16
Wind_Direction
228 225 223 222 224 226 229 232 232 232 231 230 232 231 231 230 233 233 230 226 226 225 221 216 210 205 200 196 198 202 206 209 210 212 213 214 214 214 213 213 212 212 212 212 209 206 204 204 205 207 210 210 210 210 210 208 206 207 208 208 209 208 207 208 210 209 208 207 206
231 229 227 226 226 227 228 231 232 232 230 229 229 229 230 230 232 233 231 228 227 225 222 219 210 203 198 197 198 201 204 208 209 211 213 215 215 214 213 213 212 211 211 211 209 207 205 204 204 207 210 210 210 211 211 207 204 206 208 209 208 206 206 209 210 209 208 207 206
231 231 230 229 228 227 228 230 230 230 230 230 229 229 229 230 231 232 232 230 228 225 222 221 213 204 199 197 198 200 203 206 208 210 213 215 215 214 213 214 213 213 212 211 209 208 206 203 205 207 209 209 209 210 210 207 204 205 208 208 207 205 205 209 209 208 207 208 204
232 233 233 232 230 229 229 230 230 230 229 230 229 230 230 231 232 233 234 233 230 227 224 221 217 209 202 198 198 200 203 205 206 209 212 215 215 214 214 213 213 213 212 211 210 209 207 204 205 208 210 210 209 210 209 205 203 205 208 208 206 206 206 207 206 205 205 207 204
235 234 234 234 233 233 232 232 232 232 231 229 230 231 232 232 233 234 235 234 232 229 224 220 218 214 208 201 199 200 202 204 206 209 212 214 215 214 214 213 213 213 212 211 210 209 207 204 207 211 212 210 210 209 207 203 203 205 208 208 207 206 206 205 204 203 203 204 203
242 240 239 239 238 238 239 238 236 236 234 231 231 232 233 232 232 231 232 233 233 231 227 222 221 219 213 205 202 201 202 204 206 208 211 213 214 214 214 214 214 213 212 211 210 208 207 205 209 212 213 211 212 211 207 201 203 205 208 209 208 206 205 204 202 201 201 202 202
253 251 249 247 245 244 244 243 241 240 239 237 235 235 235 233 232 231 231 232 233 231 229 226 224 221 217 211 207 205 204 204 207 209 210 213 213 213 213 214 213 213 212 211 209 208 207 206 210 213 214 211 212 209 205 201 203 205 207 209 208 205 203 204 201 200 201 201 200
266 263 260 257 254 251 249 247 246 245 244 242 240 239 237 236 234 232 232 232 232 231 229 228 225 222 219 215 213 210 207 206 208 209 210 212 213 213 213 213 213 213 213 210 208 207 207 207 211 214 213 210 210 207 204 201 203 205 207 209 207 205 202 200 199 199 200 200 199
273 270 267 265 262 259 256 253 250 248 247 247 245 243 241 239 236 235 234 234 232 230 228 228 225 222 220 218 216 214 211 208 209 209 210 211 212 212 213 212 213 213 213 211 208 207 206 208 212 214 213 210 210 206 202 199 203 205 207 208 207 205 202 200 198 199 200 200 200
272 270 269 268 265 262 260 258 255 252 250 251 250 249 247 245 241 238 236 235 234 231 229 227 224 222 221 220 219 217 214 211 210 209 209 210 210 211 211 211 211 212 212 211 208 207 206 208 213 214 214 211 209 206 202 199 202 205 207 207 205 204 203 201 199 199 200 201 200
270 269 267 265 262 260 259 258 257 254 253 253 253 252 251 249 246 244 241 239 238 235 231 226 222 221 221 222 221 219 217 214 211 209 209 210 210 209 209 209 209 209 210 209 207 206 206 209 212 214 214 212 209 205 202 200 201 204 206 207 203 202 202 202 199 199 200 201 200
272 271 268 265 262 259 257 255 255 254 253 253 253 252 251 249 248 246 245 244 241 239 235 228 222 220 220 221 221 220 218 216 213 210 209 209 209 208 208 208 207 208 208 207 205 204 206 209 211 212 212 211 208 205 202 200 201 203 205 206 203 202 202 202 200 200 200 199 199
277 276 273 270 265 262 258 255 254 254 253 252 252 251 250 249 247 246 245 244 243 242 239 232 225 222 221 221 219 218 217 216 213 211 210 209 208 208 207 208 207 207 207 207 205 205 206 208 209 209 210 210 209 206 203 200 201 203 204 205 204 203 203 202 200 199 199 199 199
283 281 278 275 270 266 261 257 256 255 254 253 252 251 250 249 246 244 242 242 243 242 241 237 231 226 223 220 218 216 215 215 213 212 211 210 208 207 207 208 206 206 205 206 206 205 206 207 207 208 208 209 209 207 203 200 201 202 203 204 204 204 204 202 199 199 199 199 199
288 284 281 278 274 270 265 260 259 257 256 254 253 251 250 249 246 243 241 241 241 241 239 237 235 231 227 222 218 215 214 213 212 212 212 211 209 207 206 207 206 205 205 205 206 207 207 207 206 207 207 209 209 207 204 202 203 203 204 204 205 205 204 202 200 199 199 199 199
290 288 286 283 279 274 270 265 263 260 258 256 254 252 250 249 246 243 240 240 240 239 238 236 235 233 230 225 220 216 214 213 213 213 212 212 209 207 206 206 205 204 204 204 206 208 209 208 207 207 207 208 209 208 206 204 204 205 205 206 206 205 204 202 200 200 200 200 199
295 293 292 290 286 280 275 270 267 264 260 259 256 253 251 248 246 243 240 238 238 238 236 235 233 232 231 229 223 219 216 216 215 215 214 213 210 208 207 206 205 204 203 204 206 208 210 210 209 208 208 209 209 209 207 205 205 206 206 207 206 206 205 203 201 200 200 201 201
299 298 298 296 292 287 281 276 272 268 264 261 258 255 251 248 246 244 241 238 237 236 236 236 233 231 230 229 226 222 219 219 219 218 216 215 212 209 208 207 206 204 203 204 207 208 209 210 210 209 209 210 210 210 208 206 206 206 207 207 207 206 205 204 202 201 201 202 202
301 302 302 300 296 292 288 283 278 273 269 265 261 258 254 249 246 245 243 240 236 235 235 236 235 233 230 228 227 225 223 222 221 220 219 217 213 211 209 208 206 204 204 205 208 209 209 209 209 209 209 210 211 210 209 208 208 207 207 207 207 206 206 205 203 202 202 202 203
301 302 302 300 298 295 292 288 284 280 275 271 266 261 257 252 248 245 244 242 238 235 234 235 235 234 233 230 229 228 226 224 223 222 221 218 215 213 211 209 207 206 205 207 209 210 210 210 209 209 209 209 210 210 210 209 209 208 208 207 207 207 206 205 204 204 203 203 202
299 299 299 299 297 295 293 290 287 284 280 276 271 265 261 256 251 247 244 243 240 237 236 236 235 235 234 232 231 230 230 228 225 224 222 220 217 215 213 209 208 208 208 208 210 211 211 210 210 210 209 210 210 209 209 209 209 209 208 208 208 207 207 206 205 204 204 203 202
296 297 297 297 296 294 292 291 290 287 284 280 274 270 265 260 255 250 247 244 242 239 238 237 236 236 234 233 232 232 232 231 228 226 224 221 219 217 214 211 210 211 211 211 211 212 211 211 211 210 209 210 210 210 209 208 209 209 209 209 209 209 208 207 206 206 205 203 203
295 295 295 295 294 293 292 292 290 288 285 281 277 273 268 264 259 255 251 247 243 241 239 239 239 237 236 234 233 232 232 232 231 229 227 224 222 219 217 213 213 214 214 214 213 212 211 212 212 211 210 210 210 210 209 209 209 209 209 209 209 209 209 208 208 207 206 205 205
294 294 294 294 293 292 292 291 289 287 285 281 278 274 270 266 262 258 253 248 244 242 240 241 240 239 237 236 234 232 231 231 231 231 230 227 224 221 218 217 217 217 217 217 214 211 210 210 211 211 211 211 211 210 210 209 209 209 209 209 209 209 210 210 209 209 208 208 207
294 293 293 293 292 291 290 288 287 285 283 281 278 275 271 267 263 259 254 249 245 242 240 241 240 239 238 238 235 233 231 229 230 230 230 229 226 223 220 219 220 220 220 220 218 216 214 212 211 210 211 211 211 211 210 210 210 210 209 208 208 209 210 211 211 210 210 210 209
294 294 293 291 290 289 287 285 283 282 281 280 278 275 271 266 262 258 253 249 246 242 239 239 239 238 237 237 236 234 232 230 228 228 228 228 227 225 223 222 222 223 223 222 221 220 219 218 215 213 210 210 210 211 211 212 211 211 210 210 209 209 210 211 211 211 211 211 211
294 293 291 289 288 286 283 282 281 281 281 281 280 276 272 266 261 255 251 248 245 242 239 237 237 237 237 237 236 234 233 232 229 227 226 226 226 225 224 224 224 223 223 223 224 224 224 222 220 217 213 209 209 210 211 212 211 211 210 211 211 210 210 210 210 211 211 212 212
292 290 289 288 285 283 281 281 282 282 282 282 281 278 274 268 261 255 250 247 245 242 239 237 235 235 236 237 235 234 233 232 230 228 226 225 225 225 225 225 225 224 224 224 226 227 227 226 225 222 218 211 209 209 210 212 211 211 211 212 213 212 212 212 211 211 212 213 213
287 287 286 284 282 281 281 283 283 283 283 282 281 280 277 272 264 256 251 247 245 242 240 237 234 233 234 236 236 235 234 232 231 229 228 227 227 226 226 226 226 226 226 226 227 228 229 229 229 227 223 216 210 206 208 210 210 211 212 214 214 214 214 214 214 213 213 214 214
284 283 281 279 279 280 282 283 283 284 283 282 281 280 278 275 268 261 254 249 244 241 238 234 233 232 232 234 235 235 235 233 232 230 229 229 229 228 228 227 226 226 227 227 228 230 230 231 231 230 228 221 213 207 204 208 210 212 213 215 216 216 216 216 216 216 216 215 215
282 280 278 277 279 281 282 283 283 283 283 282 280 279 277 274 269 264 257 250 246 243 239 234 233 233 233 233 234 234 235 234 232 230 229 230 231 231 230 228 227 227 227 228 229 231 231 232 232 232 230 227 219 210 203 205 209 212 214 215 216 216 216 218 217 218 217 217 216
279 277 276 276 279 281 282 284 284 283 283 282 281 279 277 273 269 264 259 254 250 246 242 237 235 235 236 236 235 234 234 234 232 231 229 229 231 231 231 230 227 227 228 228 230 232 233 233 233 232 231 230 224 215 204 202 207 211 214 216 216 215 215 216 217 218 218 218 217
276 275 274 276 278 280 282 284 284 285 285 285 284 282 280 276 273 269 264 259 254 248 243 239 237 237 238 237 236 236 235 234 233 232 232 230 231 231 232 231 230 228 228 229 231 233 234 234 234 233 232 230 228 220 209 203 205 210 213 216 216 216 216 216 218 218 218 218 217
275 274 273 274 277 280 283 286 287 288 289 289 288 286 284 281 279 275 271 264 257 250 245 241 238 238 238 237 237 237 236 236 234 233 231 230 230 230 231 230 230 228 228 230 232 233 234 235 235 234 233 231 230 225 215 207 207 209 212 214 215 216 216 216 217 218 218 217 217
273 272 272 274 279 283 287 290 291 291 291 291 290 288 286 283 280 277 274 268 262 255 249 245 242 241 240 239 237 237 237 238 236 233 231 229 229 230 231 231 230 228 228 230 232 233 235 235 235 235 233 231 231 227 221 213 210 210 211 213 215 215 215 215 216 216 216 216 217
268 269 272 278 283 287 290 291 292 291 291 289 289 288 286 284 281 278 275 272 267 261 254 250 247 245 244 243 240 238 237 237 236 234 231 228 227 229 231 231 230 228 228 230 232 234 235 235 236 235 234 231 230 228 225 221 216 212 211 212 214 215 215 214 214 214 215 215 215
264 268 275 282 286 289 290 290 290 290 289 288 287 287 286 285 283 281 278 276 271 266 261 254 250 247 245 243 242 240 237 235 234 234 232 229 227 228 230 231 229 227 227 229 232 234 235 236 236 235 234 231 228 227 227 227 223 217 213 213 214 214 214 214 213 213 213 212 213
270 275 280 284 286 288 288 289 289 288 287 287 286 286 285 285 284 282 280 277 272 269 265 260 254 250 247 244 244 242 239 235 233 232 232 230 227 226 228 231 229 227 226 228 231 234 236 236 237 235 233 230 227 225 226 228 227 222 217 213 214 213 212 213 212 212 212 211 212
282 283 283 283 284 286 287 287 286 286 286 286 286 286 286 286 284 283 280 276 271 268 266 264 259 255 252 248 247 245 242 237 233 231 230 230 227 226 226 229 229 226 224 226 230 233 235 237 237 236 234 231 227 224 225 227 229 228 223 215 213 211 211 211 211 212 212 211 212
286 285 283 282 283 284 285 285 284 284 284 285 286 286 287 286 284 283 281 278 273 269 267 267 264 261 258 253 251 249 245 241 235 231 230 229 229 228 227 228 228 226 224 225 229 232 235 237 238 237 236 233 227 224 224 225 229 230 228 221 213 209 208 209 210 211 212 212 213
286 285 283 282 281 282 283 283 283 283 283 284 284 285 286 286 285 285 284 281 277 273 271 270 268 265 262 259 256 253 249 246 239 233 229 228 229 229 229 228 226 224 223 225 228 231 234 237 238 238 236 234 228 224 223 224 228 230 230 225 216 209 206 206 208 210 211 210 211